When you browse on this site, cookies collect data to enhance your experience and personalize the content and advertising you see.
Visit our Privacy Policy to learn more. By continuing to use the site, you agree to this use of cookies and data.
  • Em Portugal
  • Lista de países
  • Para 7 dias
  • Temperatura da água
  • Mapas de satélite
  • Mapa do tempo
  • Widgets de tempo
  • user-avatar
    Iniciar Sessão

    Previsão horária em Blagoevgrad

    Hoje, 19 Dezembro, Quarta-feira

    Tempo Temperatura Precipitação Vento Pressão Humidade
    00:00 -2°C° 0 mm 2 m/s 725 mmHg 89%
    01:00 -3°C° 0 mm 2 m/s 725 mmHg 89%
    02:00 -4°C° 0 mm 3 m/s 725 mmHg 88%
    03:00 -4°C° 0 mm 3 m/s 725 mmHg 88%
    04:00 -3°C° 0 mm 2 m/s 725 mmHg 88%
    05:00 -3°C° 0 mm 2 m/s 725 mmHg 88%
    06:00 -4°C° 0 mm 2 m/s 726 mmHg 88%
    07:00 -4°C° 0 mm 2 m/s 726 mmHg 87%
    08:00 -4°C° 0 mm 2 m/s 726 mmHg 87%
    09:00 -2°C° 0 mm 2 m/s 726 mmHg 84%
    10:00 -1°C° 0 mm 2 m/s 726 mmHg 81%
    11:00 +2°C° 0 mm 2 m/s 726 mmHg 78%
    12:00 +3°C° 0 mm 2 m/s 726 mmHg 78%
    13:00 +3°C° 0 mm 2 m/s 726 mmHg 78%
    14:00 +4°C° 0 mm 2 m/s 726 mmHg 77%
    15:00 +3°C° 0 mm 2 m/s 726 mmHg 81%
    16:00 +3°C° 0 mm 1 m/s 726 mmHg 84%
    17:00 +1°C° 0 mm 1 m/s 726 mmHg 88%
    18:00 +1°C° 0 mm 1 m/s 726 mmHg 87%
    19:00 +1°C° 0 mm 1 m/s 726 mmHg 87%
    20:00 0°C° 0 mm 1 m/s 726 mmHg 86%
    21:00 0°C° 0 mm 1 m/s 726 mmHg 85%
    22:00 0°C° 0 mm 1 m/s 726 mmHg 83%
    23:00 0°C° 0 mm 1 m/s 726 mmHg 82%

    Amanhã, 20 Dezembro, Quinta-feira

    Tempo Temperatura Precipitação Vento Pressão Humidade
    00:00 0°C° 0 mm 1 m/s 726 mmHg 81%
    01:00 0°C° 0 mm 1 m/s 727 mmHg 80%
    02:00 0°C° 0 mm 1 m/s 727 mmHg 79%
    03:00 0°C° 0 mm 1 m/s 726 mmHg 79%
    04:00 0°C° 0 mm 1 m/s 726 mmHg 78%
    05:00 0°C° 0 mm 1 m/s 726 mmHg 78%
    06:00 0°C° 0 mm 1 m/s 726 mmHg 77%
    07:00 +1°C° 0 mm 1 m/s 726 mmHg 77%
    08:00 +1°C° 0 mm 1 m/s 726 mmHg 77%
    09:00 +3°C° 0 mm 1 m/s 727 mmHg 76%
    10:00 +4°C° 0 mm 1 m/s 727 mmHg 76%
    11:00 +6°C° 0 mm 1 m/s 727 mmHg 75%
    12:00 +7°C° 0 mm 1 m/s 727 mmHg 76%
    13:00 +7°C° 0 mm 1 m/s 726 mmHg 76%
    14:00 +8°C° 0 mm 1 m/s 726 mmHg 77%
    15:00 +6°C° 0 mm 1 m/s 726 mmHg 79%
    16:00 +5°C° 0 mm 1 m/s 726 mmHg 82%
    17:00 +3°C° 0 mm 1 m/s 726 mmHg 84%
    18:00 +3°C° 0 mm 1 m/s 726 mmHg 83%
    19:00 +2°C° 0 mm 1 m/s 727 mmHg 83%
    20:00 +2°C° 0 mm 1 m/s 727 mmHg 82%
    21:00 +2°C° 0 mm 1 m/s 727 mmHg 81%
    22:00 +2°C° 0 mm 1 m/s 727 mmHg 79%
    23:00 +2°C° 0 mm 1 m/s 727 mmHg 78%

    Depois de amanhã, 21 Dezembro, Sexta-feira

    Tempo Temperatura Precipitação Vento Pressão Humidade
    00:00 +2°C° 0 mm 1 m/s 727 mmHg 77%
    01:00 +2°C° 0 mm 1 m/s 727 mmHg 76%
    02:00 +2°C° 0 mm 1 m/s 727 mmHg 75%
    03:00 +2°C° 0 mm 1 m/s 727 mmHg 74%
    04:00 +2°C° 0 mm 1 m/s 727 mmHg 73%
    05:00 +2°C° 0 mm 1 m/s 727 mmHg 71%
    06:00 +2°C° 0 mm 1 m/s 727 mmHg 71%
    07:00 +3°C° 0 mm 1 m/s 727 mmHg 70%
    08:00 +3°C° 0 mm 1 m/s 727 mmHg 69%
    09:00 +5°C° 0 mm 1 m/s 728 mmHg 70%
    10:00 +6°C° 0 mm 1 m/s 728 mmHg 70%
    11:00 +7°C° 0 mm 0 m/s 728 mmHg 71%
    12:00 +8°C° 0 mm 1 m/s 727 mmHg 71%
    13:00 +9°C° 0 mm 1 m/s 727 mmHg 71%
    14:00 +10°C° 0 mm 1 m/s 727 mmHg 72%
    15:00 +8°C° 0 mm 1 m/s 726 mmHg 74%
    16:00 +7°C° 0 mm 1 m/s 726 mmHg 77%
    17:00 +5°C° 0 mm 1 m/s 726 mmHg 80%
    18:00 +5°C° 0 mm 1 m/s 726 mmHg 79%
    19:00 +5°C° 0 mm 1 m/s 726 mmHg 78%
    20:00 +4°C° 0 mm 1 m/s 727 mmHg 78%
    21:00 +4°C° 0 mm 1 m/s 726 mmHg 77%
    22:00 +4°C° 0 mm 1 m/s 726 mmHg 77%
    23:00 +4°C° 0 mm 1 m/s 726 mmHg 76%

    22 Dezembro, Sábado

    Tempo Temperatura Precipitação Vento Pressão Humidade
    00:00 +4°C° 0 mm 1 m/s 726 mmHg 77%
    01:00 +4°C° 0 mm 1 m/s 726 mmHg 77%
    02:00 +4°C° 0 mm 1 m/s 725 mmHg 78%
    03:00 +4°C° 0 mm 1 m/s 725 mmHg 78%
    04:00 +4°C° 0 mm 1 m/s 725 mmHg 79%
    05:00 +4°C° 0 mm 1 m/s 725 mmHg 79%
    06:00 +4°C° 0 mm 1 m/s 725 mmHg 79%
    07:00 +4°C° 0 mm 1 m/s 725 mmHg 78%
    08:00 +4°C° 0 mm 1 m/s 725 mmHg 78%
    09:00 +6°C° 0 mm 1 m/s 725 mmHg 77%
    10:00 +7°C° 0 mm 1 m/s 725 mmHg 76%
    11:00 +9°C° 0 mm 1 m/s 725 mmHg 75%
    12:00 +10°C° 0 mm 1 m/s 724 mmHg 75%
    13:00 +10°C° 0 mm 1 m/s 724 mmHg 75%
    14:00 +10°C° 0 mm 1 m/s 723 mmHg 75%
    15:00 +9°C° 0 mm 1 m/s 723 mmHg 77%
    16:00 +8°C° 0 mm 1 m/s 723 mmHg 78%
    17:00 +7°C° 0 mm 1 m/s 723 mmHg 80%
    18:00 +7°C° 0 mm 1 m/s 723 mmHg 79%
    19:00 +6°C° 0 mm 1 m/s 723 mmHg 78%
    20:00 +6°C° 0 mm 1 m/s 724 mmHg 78%
    21:00 +5°C° 0 mm 1 m/s 724 mmHg 77%
    22:00 +5°C° 0 mm 1 m/s 724 mmHg 76%
    23:00 +5°C° 0 mm 1 m/s 723 mmHg 75%

    23 Dezembro, Domingo

    Tempo Temperatura Precipitação Vento Pressão Humidade
    00:00 +5°C° 0 mm 1 m/s 723 mmHg 76%
    01:00 +5°C° 0 mm 1 m/s 723 mmHg 77%
    02:00 +5°C° 0 mm 1 m/s 723 mmHg 78%
    03:00 +5°C° 0 mm 1 m/s 723 mmHg 79%
    04:00 +5°C° 0 mm 1 m/s 724 mmHg 80%
    05:00 +5°C° 0 mm 1 m/s 724 mmHg 81%
    06:00 +5°C° 0 mm 1 m/s 724 mmHg 82%
    07:00 +6°C° 0 mm 1 m/s 724 mmHg 82%
    08:00 +6°C° 0 mm 1 m/s 725 mmHg 83%
    09:00 +7°C° 0 mm 1 m/s 725 mmHg 81%
    10:00 +9°C° 0 mm 1 m/s 725 mmHg 79%
    11:00 +10°C° 0 mm 1 m/s 726 mmHg 77%
    12:00 +11°C° 0 mm 1 m/s 725 mmHg 75%
    13:00 +10°C° 0 mm 2 m/s 725 mmHg 73%
    14:00 +12°C° 0 mm 2 m/s 725 mmHg 71%
    15:00 +10°C° 0 mm 1 m/s 724 mmHg 74%
    16:00 +9°C° 0 mm 1 m/s 724 mmHg 77%
    17:00 +7°C° 0 mm 1 m/s 724 mmHg 80%
    18:00 +7°C° 0 mm 1 m/s 725 mmHg 79%
    19:00 +6°C° 0 mm 1 m/s 725 mmHg 78%
    20:00 +6°C° 0 mm 1 m/s 725 mmHg 77%
    21:00 +6°C° 0 mm 1 m/s 725 mmHg 76%
    22:00 +6°C° 0 mm 1 m/s 725 mmHg 76%
    23:00 +6°C° 0 mm 1 m/s 725 mmHg 75%

    24 Dezembro, Segunda-feira

    Tempo Temperatura Precipitação Vento Pressão Humidade
    00:00 +6°C° 0 mm 1 m/s 725 mmHg 74%
    01:00 +6°C° 0 mm 1 m/s 724 mmHg 73%
    02:00 +6°C° 0 mm 1 m/s 724 mmHg 72%
    03:00 +6°C° 0 mm 1 m/s 724 mmHg 72%
    04:00 +6°C° 0 mm 1 m/s 724 mmHg 71%
    05:00 +6°C° 0 mm 1 m/s 724 mmHg 71%
    06:00 +6°C° 0 mm 1 m/s 724 mmHg 72%
    07:00 +6°C° 0 mm 1 m/s 724 mmHg 73%
    08:00 +6°C° 0 mm 1 m/s 724 mmHg 74%
    09:00 +8°C° 0 mm 1 m/s 724 mmHg 72%
    10:00 +9°C° 0 mm 1 m/s 725 mmHg 70%
    11:00 +11°C° 0 mm 1 m/s 725 mmHg 69%
    12:00 +12°C° 0 mm 1 m/s 724 mmHg 68%
    13:00 +12°C° 0 mm 1 m/s 723 mmHg 67%
    14:00 +13°C° 0 mm 1 m/s 722 mmHg 67%
    15:00 +11°C° 0 mm 1 m/s 722 mmHg 71%
    16:00 +10°C° 0 mm 1 m/s 722 mmHg 75%
    17:00 +8°C° 0 mm 1 m/s 722 mmHg 79%
    18:00 +8°C° 0.2 mm 1 m/s 722 mmHg 80%
    19:00 +8°C° 0.2 mm 1 m/s 722 mmHg 82%
    20:00 +8°C° 0.2 mm 1 m/s 723 mmHg 83%
    21:00 +7°C° 0.4 mm 2 m/s 723 mmHg 85%
    22:00 +6°C° 0.4 mm 2 m/s 724 mmHg 87%
    23:00 +6°C° 0.4 mm 2 m/s 724 mmHg 89%
    Mostrar mais